Regional Weather Roundup
Issued by NWS Austin/San Antonio, TX

Current Version | Previous Version | Text Only | Print | Product List | Glossary On
Versions: 1 2 3 4 5 6 7 8 9 10 11 12 13 14 15 16 17 18 19 20 21 22 23 24 25 26 27 28 29 30 31 32 33 34 35 36 37 38 39 40 41 42 43 44 45 46 47 48 49 50
000
ASUS44 KEWX 060901
RWREWX
SOUTH TEXAS REGIONAL WEATHER ROUNDUP
NATIONAL WEATHER SERVICE AUSTIN/SAN ANTONIO TX
400 AM CDT THU OCT 06 2022

NOTE: "FAIR" INDICATED FEW OR NO CLOUDS BELOW 12,000 FEET WITH NO
SIGNIFICANT WEATHER AND/OR OBSTRUCTIONS TO VISIBILITY.

* - THESE STATIONS ARE NOT NWS OR FAA STATIONS...AND ARE NOT SUBJECT
    TO NWS AND FAA QUALITY CONTROL.

TXZ171-172-183>190-061000-
TEXAS HILL COUNTRY AND EDWARDS PLATEAU

CITY           SKY/WX    TMP DP  RH WIND       PRES   REMARKS
JUNCTION       CLEAR     57  47  69 CALM      30.17S
*LLANO         CLOUDY    61  48  63 CALM      30.14S
BURNET         CLEAR     64  49  57 CALM      30.16S
*HORSESHOE BAY CLEAR     64  51  60 CALM      30.14S
*LAGO VISTA      N/A     69  54  60 W7        30.14F
*KERRVILLE     CLEAR     55  48  77 N3        30.16F
*FREDERICKSBRG CLEAR     57  47  71 NW5       30.17S
*ROCKSPRINGS   MOCLDY    63  50  63 SE7       30.21F
*BOERNE        CLEAR     55  50  82 CALM      30.16S
*CASTROVILLE   CLEAR     64  48  55 NW5       30.15S
HONDO          CLEAR     61  48  62 N7        30.13S
*UVALDE        CLEAR     61  52  72 NE3       30.14F
DEL RIO        CLEAR     67  56  67 E8        30.10S
*LAUGHLIN AFB  CLEAR     62  55  78 CALM      30.09S
*SPOFFORD      CLEAR     64  55  73 CALM      30.10S
CARRIZO SPRGS  CLEAR     64  59  82 CALM      30.09F
*FAITH RANCH   CLEAR     70  61  73 SE6       30.12S
$$

TXZ173-191>194-202-209-217>225-228-061000-
CENTRAL AND SOUTH CENTRAL TEXAS

CITY           SKY/WX    TMP DP  RH WIND       PRES   REMARKS
GEORGETOWN     CLEAR     61  50  67 CALM      30.14S
*TAYLOR        CLEAR     57  46  66 CALM      30.12S
AUSTIN/BERGSTM CLEAR     58  53  84 CALM      30.11F
AUSTIN/MABRY   CLEAR     67  55  65 CALM      30.13S
*PFLUGERVILLE  CLEAR     64  54  68 CALM      30.11S
SAN MARCOS     CLEAR    N/A N/A N/A NW5         N/A
NEW BRAUNFELS  CLEAR     65  55  70 W3        30.11F
*RANDOLPH AFB  CLEAR     62  52  71 CALM      30.10S
*SEGUIN        CLEAR     63  56  79 NW5       30.10S
SAN ANTONIO    PTCLDY    64  55  72 NW5       30.13S
STINSON FIELD    N/A     63  55  75 MISG      30.11S
*KELLY FIELD   CLEAR     62  53  74 CALM      30.10S
*PLEASANTON    CLEAR     62  58  87 CALM      30.13R
*KENEDY        NOT AVBL
*LA GRANGE     NOT AVBL
*GIDDINGS      CLEAR     62  55  78 CALM      30.12S
*GONZALES      CLEAR     64  59  85 CALM      30.11S
$$

TXZ163>164-176>182-195>201-210>213-226-227-235-061000-
SOUTHEAST TEXAS

CITY           SKY/WX    TMP DP  RH WIND       PRES   REMARKS
COLLEGE STN    NOT AVBL
*BRYAN         CLEAR     58  51  79 CALM      30.14S
*CALDWELL      CLEAR     60  54  79 CALM      30.12S
*CROCKETT      CLEAR     55  50  82 CALM      30.11S
*BRENHAM       CLEAR     63  56  79 CALM        N/A
HUNTSVILLE     CLEAR     62  55  77 CALM      30.11S
CONROE         CLEAR     56  55  97 CALM      30.11S
HOUSTON BUSH   CLEAR     64  62  93 CALM      30.09F
HOUSTON HOBBY  CLEAR     68  64  87 CALM      30.08F
*HOUSTON SW AP NOT AVBL
PEARLAND       CLEAR     64  61  90 CALM      30.10S
HOUSTON HOOKS  CLEAR     59  58  96 CALM      30.10S
ELLINGTON FLD  CLEAR     66  61  82 CALM      30.08
SUGAR LAND     CLEAR     62  61  96 CALM      30.09S
*HOUSTON EXEC  NOT AVBL
*CLEVELAND MUN NOT AVBL
*WHARTON       CLEAR     60  60  99 CALM      30.10F
*COLUMBUS      FOG       59  56  90 CALM      30.11F VSB 1/4
*EAGLE LAKE    CLEAR     61  59  91 MISG      30.10
$$

TXZ214>216-236>238-061000-
THE UPPER TEXAS COAST

CITY           SKY/WX    TMP DP  RH WIND       PRES   REMARKS
*ORANGE        FOG       64  62  94 CALM      30.12S VSB 3/4
PORT ARTHUR    CLEAR     63  63 100 N3        30.09S FOG
GALVESTON      CLEAR     73  65  75 CALM      30.09S
ANGLETON       CLEAR     58  58 100 CALM      30.08F FOG
*BAY CITY      CLEAR     61  60  96 CALM      30.09S
PALACIOS       CLEAR     63  61  93 N7        30.08S
$$

TXZ229>234-239>247-061000-
TEXAS COASTAL BEND AND RIO GRANDE PLAINS

CITY           SKY/WX    TMP DP  RH WIND       PRES   REMARKS
VICTORIA       CLEAR     60  59  96 N6        30.09F FOG
*BEEVILLE      CLEAR     61  58  92 N3        30.09S
ROCKPORT       CLEAR     70  67  90 N3        30.07S
*PORT ARANSAS  CLEAR    N/A N/A N/A NE3       30.08F
*PORT LAVACA   NOT AVBL
*INGLESIDE     NOT AVBL
CORPUS CHRISTI PTCLDY    67  60  78 NW6       30.07F
CORPUS NAS     CLEAR     75  68  78 CALM      30.07S
*ROBSTOWN      CLEAR     63  59  86 MISG      30.09S
ALICE          CLEAR     62  60  93 NW5       30.08S
KINGSVILLE NAS CLEAR     63  62  97 N6        30.07F
COTULLA        CLEAR     69  59  70 E3        30.10S
LAREDO         CLEAR     71  63  75 SE6       30.09S
$$

TXZ248>255-061000-
DEEP SOUTH TEXAS

CITY           SKY/WX    TMP DP  RH WIND       PRES   REMARKS
BROWNSVILLE    MOCLDY    73  67  81 N5        30.05F
PORT ISABEL    PTCLDY    70  66  87 CALM      30.06S
HARLINGEN      PTCLDY    69  66  90 NW5       30.05F
*HEBBRONVILLE  PTCLDY    64  60  85 CALM      30.11S
MCALLEN        PTCLDY    74  65  73 N3        30.07S
*WESLACO       CLEAR     69  66  89 CALM      30.07
FALFURRIAS     PTCLDY    64  61  91 NW3       30.07S
EDINBURG       MOCLDY    66  64  92 N3        30.08S
*ZAPATA        PTCLDY    71  64  80 CALM      30.09F
$$

TXZ213>215-236>238-242>244-246-247-251-254-255-061000-
CMAN STATIONS

STATION/POSITION TIME  TEMP    WIND        PRES    WAVE
                       AIR SEA DIR/SP/G            HT/PER
                 (UTC) (F)     (DEG/KT/KT) (MB)    (FT/S)
SEA RIM ST PARK  0800   68     360/  7/  8 1019.2
NORTH JETTY/GLS  0830   78 79  160/  5/  7 1017.5
EAGLE POINT      0830   74 78  210/  2/  3 1018.1
MORGANS POINT    0830   73 78  340/  2/  3 1018.3
MISSION/ARANSAS  0800   76      60/  4     1019.0
PORT O`CONNOR    0824   77 85   40/  4/  5 1018.1
PORT ARANSAS     0800   79      70/  8/  9   N/A
BAFFIN BAY       0824   77 81   80/  2/  3 1018.6
PORT ISABEL      0824   77 83  330/  1/  1 1017.3
$$



USA.gov is the U.S. government's official web portal to all federal, state and local government web resources and services.